Cloud_Cover
100 100 90 100 99 78 100 100 100 84 60 48 27 46 20 6 72 99 92 88 80 78 94 64 21 27 82 100 100 100 67 86 84 77 91 100 100 100 99 38 0 0 0 5
78 96 89 91 100 100 83 84 100 100 9 1 1 5 5 5 25 12 5 5 66 84 56 25 56 79 48 42 87 79 20 30 20 5 4 1 2 1 0 0 0 1 4 2
98 99 100 100 100 97 100 100 69 5 4 5 5 15 6 5 5 5 5 5 5 4 5 5 21 18 20 6 5 5 1 3 5 2 3 3 0 0 0 0 0 0 0 0
100 100 97 57 100 100 99 6 4 3 15 75 5 5 5 5 1 4 7 7 35 63 6 0 5 5 92 52 5 39 59 79 13 52 34 4 0 0 0 0 0 0 0 0
93 96 99 100 97 12 0 5 4 2 5 5 5 5 5 0 3 5 2 0 0 0 0 2 5 5 36 75 82 88 100 100 97 0 0 0 0 0 0 0 0 0 0 0
2 11 6 5 1 4 3 2 10 15 42 21 6 5 2 0 0 0 0 0 0 0 5 19 5 55 19 87 5 0 1 3 5 5 4 2 5 3 3 5 5 5 1 0
0 0 0 0 0 0 5 5 63 77 31 1 0 0 0 0 0 0 0 0 0 4 5 79 76 76 20 2 4 4 5 5 5 5 5 5 5 39 5 15 4 0 0 0
3 5 24 5 5 4 1 0 0 0 0 0 0 0 0 0 0 0 0 0 0 0 5 85 92 95 3 4 5 5 5 5 22 99 50 9 44 77 79 48 3 0 4 5
0 1 0 0 0 0 0 0 0 0 0 0 0 0 0 0 0 0 0 0 0 0 5 53 38 0 4 0 5 5 5 17 56 49 76 24 43 80 64 21 5 5 5 6
0 0 0 0 0 0 0 0 0 0 0 0 0 0 0 0 0 0 0 0 0 1 6 12 2 1 0 5 5 5 34 80 81 70 64 92 94 89 56 5 5 13 46 32
0 0 0 0 0 0 0 0 0 0 0 0 0 0 0 0 0 0 0 0 1 1 0 2 5 5 5 5 38 9 98 99 28 100 100 100 66 5 5 22 51 14 26 5
0 4 0 0 0 0 0 0 0 0 0 2 1 0 0 0 0 0 5 5 5 0 0 5 5 17 67 74 53 92 94 24 82 100 100 93 19 48 55 16 5 2 5 3
0 0 0 0 0 0 0 0 0 0 0 0 1 0 0 5 5 8 6 5 2 2 5 5 87 100 71 100 100 100 87 100 100 98 26 36 13 5 5 5 5 5 2 5
0 0 0 0 0 4 5 5 0 0 0 0 2 12 5 6 5 7 5 5 5 14 23 56 100 100 100 100 84 100 100 100 23 5 5 5 5 5 19 22 6 27 34 39
0 0 0 4 5 5 5 5 4 5 3 5 5 8 87 10 47 17 5 5 92 100 100 98 88 100 74 90 97 69 81 5 5 5 5 5 5 52 68 30 96 99 57 13
5 5 5 5 5 5 63 22 5 5 2 5 5 5 5 5 5 5 6 61 46 44 58 75 98 100 100 61 41 5 5 5 5 8 13 25 87 93 100 100 100 100 36 2
24 7 5 69 8 27 100 10 5 5 5 5 32 8 5 5 14 54 96 35 47 31 6 50 79 100 100 97 8 60 92 20 40 60 76 100 100 100 100 99 82 5 2 0
20 5 5 20 5 90 77 58 5 5 5 5 5 5 5 63 100 100 91 91 95 62 56 50 98 100 99 48 94 99 23 53 98 100 100 100 100 93 54 78 53 0 0 2
14 5 9 5 5 73 99 78 96 5 6 5 5 5 91 100 100 100 100 68 64 70 95 100 100 99 100 71 92 86 96 100 100 100 100 100 100 70 68 38 6 5 4 5
5 5 6 10 23 82 100 100 28 5 54 50 93 97 100 97 54 100 41 32 99 100 100 100 100 100 100 93 100 100 100 100 100 100 100 96 38 50 100 98 5 5 5 3
64 39 39 22 42 95 29 5 5 44 74 100 100 100 96 93 76 85 73 60 76 100 100 100 100 99 100 100 100 100 100 100 100 93 89 44 53 100 52 5 5 5 5 5
15 42 43 48 100 28 5 53 88 71 100 73 16 52 5 21 87 31 75 100 100 100 100 100 100 100 100 100 100 100 82 100 96 96 42 54 100 46 5 5 5 5 5 5
80 19 21 98 100 20 5 33 100 100 65 5 5 5 46 67 96 73 94 100 100 100 100 100 100 100 100 100 98 98 99 96 91 72 100 94 10 5 5 9 5 9 51 5
100 87 94 22 99 93 100 100 87 5 5 5 5 7 61 100 93 100 100 100 100 100 100 100 100 100 100 96 91 83 100 98 99 100 100 75 86 35 51 51 16 48 58 5
100 100 100 100 100 98 96 42 5 5 25 25 11 65 73 40 32 30 78 100 100 100 100 100 100 100 100 100 100 100 98 100 100 100 27 86 100 100 100 100 78 70 54 5
100 100 71 45 34 5 8 20 48 43 77 82 89 100 82 60 97 100 100 100 100 100 100 100 100 100 100 100 100 100 98 92 85 100 5 86 85 85 94 96 81 68 68 56